Other Public Products
Issued by NWS Grand Forks, ND

Home | Current Version | Previous Version | Text Only | Print | Product List | Glossary On
Versions: 1 2 3 4 5 6 7 8 9 10 11 12 13 14 15 16 17 18 19 20 21 22 23 24 25 26 27 28 29 30 31 32 33 34 35 36 37 38 39 40 41 42 43 44 45 46 47 48 49 50
000
FPUS83 KFGF 271831
OPUFGF
PRAIRIE TO PINES WEATHER ROUNDUP
NATIONAL WEATHER SERVICE EASTERN NORTH DAKOTA/GRAND FORKS ND
1200 PM CST THU NOV 27 2014

 **SATELLITE DATA USED TO AUGMENT SKY COVER AT AUTOMATED STATIONS**
 *****  WEATHER ACROSS EASTERN NORTH DAKOTA  *****

CITY           SKY/WX    TMP DP  RH WIND       PRES   REMARKS
GRAND FORKS    PTSUNNY    3  -5  69 S10       30.43F WCI -12
6HR MIN TEMP: -16; 6HR MAX TEMP:   3;

GRAND FORKS AF FAIR       4  -6  62 SW10      30.41F WCI -11
GRAND CITY NWS   N/A      5 N/A N/A S7          N/A  WCI  -7
BUXTON           N/A      3  -3  76 S8          N/A  WCI -10
DEVILS LAKE    SUNNY      3  -9  55 SE10      30.25F WCI -12
6HR MIN TEMP:  -6; 6HR MAX TEMP:   3;

FARGO          SUNNY      2  -6  69 SE7       30.44F WCI -11
6HR MIN TEMP: -13; 6HR MAX TEMP:   2;

WAHPETON ARPT  CLEAR      5  -4  66 S8        30.44F WCI  -8
$$

 *****  WEATHER ACROSS CENTRAL AND WESTERN NORTH DAKOTA  *****

CITY           SKY/WX    TMP DP  RH WIND       PRES   REMARKS
JAMESTOWN      CLOUDY     1  -7  68 S14       30.32F WCI -17
6HR MIN TEMP: -24; 6HR MAX TEMP:   2;

BISMARCK       CLOUDY     7   3  84 SE14      30.21F WCI -10
6HR MIN TEMP:  -9; 6HR MAX TEMP:   7;

MINOT          CLOUDY    11   4  73 SE10      30.13F WCI  -3
6HR MIN TEMP:  -9; 6HR MAX TEMP:  11;

MINOT AFB      CLOUDY    10   9  94 SE12      30.14F WCI  -4
6HR MIN TEMP: -12; 6HR MAX TEMP:  10; 6HR PCP: TRACE;

GARRISON         N/A     10   8  92 SE12      30.14F WCI  -5
6HR MIN TEMP:   5; 6HR MAX TEMP:  10;

WILLISTON      SNOW      20  16  84 E10       30.01F VSB 1/2 WCI   9
6HR MIN TEMP:   9; 6HR MAX TEMP:  20; 6HR PCP:  0.01;

DICKINSON      CLOUDY    20  16  84 SE21      29.95F WCI   4
6HR MIN TEMP:  13; 6HR MAX TEMP:  19; 6HR PCP: TRACE;

HETTINGER      CLOUDY    19  15  84 SE14      30.04F WCI   6
6HR MIN TEMP:  12; 6HR MAX TEMP:  19; 6HR PCP: TRACE;

$$

 *****  OTHER OBSERVATIONS NORTHEAST NORTH DAKOTA  *****

CITY           SKY/WX    TMP DP  RH WIND       PRES   REMARKS
WALHALLA         N/A      5   0  78 SW10      30.36F WCI -10
LANGDON        FAIR       5   1  85 SW17      30.26F WCI -14
CAVALIER       FAIR       5  -2  72 S10       30.38F WCI -10
GRAFTON        FAIR       5  -2  72 S13       30.41F WCI -12
CANDO          MOCLDY     5   0  78 S9        30.27F WCI  -9
FORT TOTTEN      N/A      4  -7  61 S9        29.95S WCI -10
ROLLA          FAIR       3   0  85 S14       30.20F WCI -15
RUGBY          FAIR       3   0  85 SE9       30.23F WCI -11
 ***** THE ABOVE OBSERVATIONS ARE NON NWS ARE NOT QUALITY
        CONTROLLED AND MAY MIS-REPORT RAIN FOR SNOW...
$$

 *****  OTHER OBSERVATIONS SOUTHEAST NORTH DAKOTA *****

CITY           SKY/WX    TMP DP  RH WIND       PRES   REMARKS
COOPERSTOWN    NOT AVBL
VALLEY CITY    FAIR       0   0 100 S10       30.34F WCI -17
OAKES            N/A      1   0  92 S7        30.37F WCI -11
GWINNER        CLEAR      5  -4  66 S8        30.39F WCI  -8
SHEYENNE NWR     N/A      4  -7  60 S7        29.95  WCI  -8
BUFFALO        NOT AVBL
WYNDMERE         N/A      3  -6  66 SE8         N/A  WCI -10
 ***** THE ABOVE OBSERVATIONS ARE NON NWS ARE NOT QUALITY
       CONTROLLED AND MAY MIS-REPORT RAIN FOR SNOW...
$$

  *****  WEATHER ACROSS NORTHERN MINNESOTA  *****

CITY           SKY/WX    TMP DP  RH WIND       PRES   REMARKS
FLAG ISLAND    SUNNY      0  -8  71 S7        30.38F WCI -13
WARROAD        SUNNY      0  -8  71 SW8       30.39F WCI -15
ROSEAU         SUNNY      1  -6  71 SW8       30.39F WCI -12
HALLOCK        SUNNY      3  -4  72 S14       30.40F WCI -15
THF RVR FALLS  SUNNY      0  -6  78 S7        30.39F WCI -13
6HR MIN TEMP: -17; 6HR MAX TEMP:  -2;

HALSTAD          N/A      1  -6  73 S9          N/A  WCI -14
FOSSTON        SUNNY      0  -9  65 S5        30.40F WCI -10
BAUDETTE       SUNNY     -2  -7  79 CALM      30.39F
6HR MIN TEMP: -19; 6HR MAX TEMP:  -2;

WASKISH        SUNNY      0  -8  71 CALM      30.41F
CROOKSTON      SUNNY      0  -6  78 S9        30.43F WCI -16
$$
  *****  WEATHER ACROSS CENTRAL AND WEST MINNESOTA  *****

CITY           SKY/WX    TMP DP  RH WIND       PRES   REMARKS
BEMIDJI        SUNNY      0 -10  63 CALM      30.39F
PARK RAPIDS    SUNNY      2  -5  72 CALM      30.39F
6HR MIN TEMP: -17; 6HR MAX TEMP:   2;

WADENA         SUNNY      3  -6  66 SE3       30.38F
DETROIT LAKES  SUNNY      3  -4  72 SE7       30.39F WCI  -9
MOORHEAD       SUNNY      3  -4  72 SE7       30.43F WCI  -9
FERGUS FALLS   SUNNY      3  -8  60 SE6       30.45F WCI  -8
ELBOW LAKE     FAIR       2  -5  72 S6        30.41F HAZE    WCI  -9
MORRIS MN      SUNNY      1  -6  71 S6        30.43F WCI -10
STAPLES        SUNNY      1  -8  66 CALM      30.40F
WHEATON        SUNNY      0  -6  78 SE8       30.45F WCI -15
$$
  *****  WEATHER ELSEWHERE ACROSS MINNESOTA  *****

CITY           SKY/WX    TMP DP  RH WIND       PRES   REMARKS
DULUTH         SUNNY      4  -7  60 NW8       30.37F WCI  -9
6HR MIN TEMP:  -9; 6HR MAX TEMP:   4;

INTRNTL FALLS  SUNNY      0  -7  72 W5        30.40F WCI -10
6HR MIN TEMP: -20; 6HR MAX TEMP:   0;

ELY            SUNNY      1  -9  60 CALM      30.36F
CLOQUET        SUNNY      5  -8  56 NW3       30.38F
BRAINERD       SUNNY      1  -6  72 SW5       30.43F WCI  -9
6HR MIN TEMP:  -9; 6HR MAX TEMP:   1;

HIBBING        SUNNY      2  -8  63 NW3       30.39F
6HR MIN TEMP: -16; 6HR MAX TEMP:   3;

ALEXANDRIA     SUNNY      3  -7  63 SE5       30.40F WCI  -6
6HR MIN TEMP: -10; 6HR MAX TEMP:   3;

SAINT CLOUD    SUNNY      5  -6  60 N3        30.46F
6HR MIN TEMP:  -6; 6HR MAX TEMP:   5;

MINNEAPOLIS    SUNNY      6  -4  63 CALM      30.49F
6HR MIN TEMP:  -4; 6HR MAX TEMP:   7;

$$

  *****  WEATHER ACROSS SOUTH DAKOTA  *****

CITY           SKY/WX    TMP DP  RH WIND       PRES   REMARKS
SIOUX FALLS    PTSUNNY    7  -5  57 SE9       30.42F WCI  -7
6HR MIN TEMP:  -7; 6HR MAX TEMP:   7;

BROOKINGS      NOT AVBL
WATERTOWN      SUNNY      2  -6  69 S13       30.35F WCI -15
6HR MIN TEMP: -14; 6HR MAX TEMP:   2;

HURON          CLOUDY     8  -5  55 SE9       30.38F WCI  -5
6HR MIN TEMP:  -6; 6HR MAX TEMP:   8;

SISSETON         N/A      1  -6  72 S10       30.42F WCI -15
ABERDEEN       SUNNY      4  -5  66 S13       30.37F WCI -13
6HR MIN TEMP: -14; 6HR MAX TEMP:   4;

MITCHELL       CLOUDY    12   1  61 SE16      30.39F WCI  -5
PIERRE         CLOUDY    19  11  70 SE16G25   30.20F WCI   4
6HR MIN TEMP:  11; 6HR MAX TEMP:  19;

MOBRIDGE       CLOUDY    12   4  70 SE18      30.18F WCI  -6
RAPID CITY     CLOUDY    26  22  84 SE10      30.00F WCI  16
6HR MIN TEMP:  19; 6HR MAX TEMP:  24;

$$

  *****  SOME WEATHER IN NEARBY STATES *****

CITY           SKY/WX    TMP DP  RH WIND       PRES   REMARKS
GLASGOW MT     CLOUDY    26  23  88 E14       29.82F WCI  14
6HR MIN TEMP:  20; 6HR MAX TEMP:  26; 6HR PCP:  0.07;

GREAT FALLS MT SUNNY     53  35  50 SW32G43   29.78F
6HR MIN TEMP:  39; 6HR MAX TEMP:  53;

CHEYENNE WY    CLOUDY    52  19  27 W26G37    30.17F
6HR MIN TEMP:  43; 6HR MAX TEMP:  52;

SCOTTSBLUFF NE CLOUDY    29  25  85 SE3       30.10F
6HR MIN TEMP:  10; 6HR MAX TEMP:  29;

OMAHA NE       CLOUDY    18   1  47 SE3       30.52F
6HR MIN TEMP:  16; 6HR MAX TEMP:  18;

DES MOINES IA  CLOUDY    10  -2  58 NW9       30.54F WCI  -3
6HR MIN TEMP:   4; 6HR MAX TEMP:  10;

DAVENPORT IA   SUNNY     18  10  71 NW15      30.42F WCI   4
6HR MIN TEMP:  17; 6HR MAX TEMP:  25; 6HR PCP: TRACE;

CHICAGO IL     PTSUNNY   26  17  68 NW16      30.33S WCI  14
6HR MIN TEMP:  24; 6HR MAX TEMP:  27; 6HR PCP: TRACE;

EAU CLAIRE WI  SUNNY      6  -3  66 SW7       30.45F WCI  -6
6HR MIN TEMP:  -2; 6HR MAX TEMP:   6;

LA CROSSE WI   SUNNY     12   0  58 N9        30.48F WCI   0
6HR MIN TEMP:   8; 6HR MAX TEMP:  14;

$$

  *****  SOME NATIONAL WEATHER *****

CITY           SKY/WX    TMP DP  RH WIND       PRES   REMARKS
LA GUARDIA NY  CLOUDY    37  32  82 NW8       29.98F


USA.gov is the U.S. government's official web portal to all federal, state and local government web resources and services.